Location: Newark
(39.6172°N, 96.8533°W)
Time: 16:16:37
(UTC+00:00)

Transit 2A Rocket - Visible Passes

Search period start: 19 February 2020 00:00
Search period end: 29 February 2020 00:00
Orbit: 592 x 911 km, 66.7° (Epoch: 19 February)

Date Brightness Start Highest point End Pass type
(mag) Time Alt. Az. Time Alt. Az. Time Alt. Az.
21 Feb 7.5 12:20:17 10° NNE 12:23:02 14° NE 12:25:53 10° ENE visible
23 Feb 6.9 12:36:25 10° N 12:41:00 30° NE 12:45:54 10° ESE visible
24 Feb 7.5 11:54:28 10° N 11:58:11 19° NE 12:02:06 10° E visible
25 Feb 7.7 11:13:07 10° NNE 11:15:14 12° NE 11:17:26 10° ENE visible
26 Feb 6.4 12:11:02 10° NNW 12:16:00 42° NE 12:21:23 10° SE visible
27 Feb 7.1 11:28:54 10° N 11:33:17 26° NE 11:37:57 10° ESE visible
28 Feb 7.6 10:47:04 10° N 10:50:25 17° NE 10:53:55 10° E visible
28 Feb 5.1 12:28:12 10° NNW 12:33:33 83° WSW 12:39:20 10° SSE visible
